Regional Weather Roundup
Issued by NWS

Home | Current Version | Previous Version | Graphics & Text | Print | Product List | Glossary On
Versions: 1 2 3 4 5 6 7 8 9 10 11 12 13 14 15 16 17 18 19 20 21 22 23 24 25 26 27 28 29 30 31 32 33 34 35 36 37 38 39 40 41 42 43 44 45 46 47 48 49 50
000
ASUS44 KMEG 070000
RWRTN
TENNESSEE HOURLY STATE WEATHER ROUNDUP
NATIONAL WEATHER SERVICE MEMPHIS TN
600 PM CST TUE DEC 06 2016

TNZ002-004-019-021-049-052-054-088>092-070100-
WEST TENNESSEE

CITY           SKY/WX    TMP DP  RH WIND       PRES   REMARKS
MEMPHIS INTL   PTCLDY    44  41  89 S5        30.01R
NWS MEMPHIS      N/A     43 N/A N/A MISG        N/A
JACKSON        PTCLDY    40  39  97 CALM      30.01R FOG
DYERSBURG      CLEAR    N/A N/A N/A NE6       30.00R
PARIS          CLEAR     34  34 100 CALM      30.00R
$$

TNZ008-025-027-028-033-062-065-066-070100-
NORTH MIDDLE TENNESSEE

CITY           SKY/WX    TMP DP  RH WIND       PRES   REMARKS
NASHVILLE      CLOUDY    46  41  82 NW8       29.98R
CLARKSVILLE    MOCLDY    41  35  79 NW9       29.99R
SMYRNA         CLOUDY    46  43  89 NW8       29.99R
CROSSVILLE     CLOUDY    45  44  97 W10       29.91R FOG
$$

TNZ061-075-076-078-094-096-097-070100-
SOUTH MIDDLE TENNESSEE

CITY           SKY/WX    TMP DP  RH WIND       PRES   REMARKS
TULLAHOMA      CLOUDY    45  45 100 N13       29.96R
WINCHESTER     CLOUDY    46  46 100 N6        29.96R
SHELBYVILLE    CLOUDY    48  46  93 N8        29.98R
$$

TNZ017-018-042-046-047-070100-
NORTHEAST TENNESSEE

CITY           SKY/WX    TMP DP  RH WIND       PRES   REMARKS
TRI CITIES     CLOUDY    46  45  96 CALM      29.83R FOG
$$

TNZ012-013-036-069-073-074-070100-
CENTRAL EAST TENNESSEE

CITY           SKY/WX    TMP DP  RH WIND       PRES   REMARKS
KNOXVILLE      CLOUDY    55  54  94 W12       29.84R
OAK RIDGE      CLOUDY    53  49  86 W8        29.87R
GATLINBURG     CLOUDY    52  52 100 CALM      29.83R
$$

TNZ083-085-099-070100-
SOUTHEAST TENNESSEE

CITY           SKY/WX    TMP DP  RH WIND       PRES   REMARKS
CHATTANOOGA    PTCLDY    54  47  77 NW10G17   29.90R
$$

SKY/WX REPORTED AS FAIR MEANS FEW OR NO CLOUDS BELOW
12 THOUSAND FEET.




USA.gov is the U.S. government's official web portal to all federal, state and local government web resources and services.